| time (UTC) | temp F | wind direction | speed MPH | gust MPH | rain 1hr in | rain 24hr in | rain mn in | humidity % | barometer mb |
| 20260831134545 | 72 | 121 | 1.0 | 4.0 | 0.00 | 0.04 | 0.00 | 73 | 1020.5 |
| 20260831133041 | 72 | 60 | 1.0 | 3.0 | 0.00 | 0.04 | 0.00 | 73 | 1020.5 |
| 20260831131541 | 72 | 113 | 0.0 | 3.0 | 0.00 | 0.04 | 0.00 | 75 | 1020.3 |
| 20260831130042 | 71 | 0 | 1.0 | 5.0 | 0.00 | 0.04 | 0.00 | 78 | 1020.2 |
| 20260831124535 | 69 | 59 | 1.0 | 2.0 | 0.00 | 0.04 | 0.00 | 82 | 1020.4 |
| 20260831123037 | 68 | 0 | 0.0 | 1.0 | 0.00 | 0.04 | 0.00 | 83 | 1020.5 |
| 20260831121546 | 68 | 0 | 1.0 | 3.0 | 0.00 | 0.04 | 0.00 | 83 | 1020.4 |
| 20260831120038 | 68 | 0 | 0.0 | 2.0 | 0.00 | 0.04 | 0.00 | 83 | 1020.3 |
| 20260831114541 | 68 | 65 | 0.0 | 5.0 | 0.00 | 0.04 | 0.00 | 83 | 1020.3 |
| 20260831113047 | 67 | 71 | 0.0 | 4.0 | 0.00 | 0.04 | 0.00 | 83 | 1019.9 |
| 20260831111824 | 67 | 0 | 0.0 | 2.0 | 0.00 | 0.04 | 0.00 | 84 | 1020.1 |
| 20260831110038 | 67 | 102 | 0.0 | 2.0 | 0.00 | 0.04 | 0.00 | 84 | 1019.9 |
| 20260831104539 | 67 | 263 | 0.0 | 3.0 | 0.00 | 0.04 | 0.00 | 83 | 1019.7 |
| 20260831103042 | 67 | 302 | 0.0 | 4.0 | 0.00 | 0.04 | 0.00 | 85 | 1019.5 |
| 20260831101542 | 67 | 0 | 0.0 | 3.0 | 0.00 | 0.04 | 0.00 | 86 | 1019.1 |
| 20260831100038 | 67 | 298 | 1.0 | 3.0 | 0.00 | 0.04 | 0.00 | 87 | 1019.0 |
| 20260831094542 | 67 | 0 | 0.0 | 3.0 | 0.00 | 0.04 | 0.00 | 88 | 1019.3 |
| 20260831093039 | 67 | 0 | 0.0 | 4.0 | 0.00 | 0.04 | 0.00 | 88 | 1019.5 |
| 20260831091541 | 67 | 9 | 0.0 | 2.0 | 0.00 | 0.04 | 0.00 | 87 | 1019.0 |
| 20260831090044 | 68 | 0 | 0.0 | 1.0 | 0.00 | 0.04 | 0.00 | 87 | 1018.9 |
| 20260831084552 | 68 | 0 | 0.0 | 0.0 | 0.00 | 0.04 | 0.00 | 88 | 1019.0 |
| 20260831083043 | 68 | 0 | 0.0 | 2.0 | 0.00 | 0.04 | 0.00 | 88 | 1019.1 |
| 20260831081541 | 68 | 21 | 0.0 | 1.0 | 0.00 | 0.04 | 0.00 | 88 | 1019.1 |
| 20260831080040 | 68 | 0 | 0.0 | 0.0 | 0.00 | 0.04 | 0.00 | 88 | 1018.8 |
| 20260831074539 | 68 | 0 | 0.0 | 2.0 | 0.00 | 0.04 | 0.00 | 88 | 1018.9 |
| 20260831073041 | 68 | 288 | 1.0 | 2.0 | 0.00 | 0.04 | 0.00 | 88 | 1018.9 |
| 20260831071540 | 68 | 300 | 0.0 | 4.0 | 0.00 | 0.04 | 0.00 | 87 | 1019.0 |
| 20260831070053 | 68 | 341 | 1.0 | 3.0 | 0.00 | 0.04 | 0.00 | 87 | 1018.9 |
| 20260831064541 | 69 | 0 | 0.0 | 2.0 | 0.00 | 0.04 | 0.00 | 87 | 1019.0 |
| 20260831063042 | 68 | 330 | 1.0 | 3.0 | 0.00 | 0.04 | 0.00 | 87 | 1018.6 |
| 20260831061538 | 68 | 346 | 0.0 | 3.0 | 0.00 | 0.04 | 0.00 | 87 | 1019.0 |
| 20260831060041 | 69 | 0 | 0.0 | 4.0 | 0.00 | 0.04 | 0.00 | 87 | 1018.8 |
| 20260831054544 | 69 | 285 | 1.0 | 5.0 | 0.00 | 0.04 | 0.00 | 86 | 1018.6 |
| 20260831053053 | 69 | 321 | 2.0 | 8.0 | 0.00 | 0.04 | 0.00 | 86 | 1018.4 |
| 20260831051543 | 69 | 294 | 2.0 | 4.0 | 0.00 | 0.04 | 0.00 | 86 | 1018.5 |
| 20260831050045 | 69 | 254 | 2.0 | 4.0 | 0.00 | 0.04 | 0.00 | 87 | 1018.8 |
| 20260831044541 | 69 | 304 | 2.0 | 5.0 | 0.00 | 0.04 | 0.00 | 88 | 1018.7 |
| 20260831043042 | 69 | 281 | 2.0 | 4.0 | 0.00 | 0.04 | 0.00 | 88 | 1018.7 |
| 20260831041541 | 70 | 319 | 1.0 | 3.0 | 0.00 | 0.04 | 0.00 | 88 | 1018.5 |
| 20260831040043 | 70 | 332 | 1.0 | 3.0 | 0.00 | 0.04 | 0.00 | 89 | 1018.5 |
| 20260831034541 | 70 | 275 | 1.0 | 2.0 | 0.00 | 0.04 | 0.04 | 89 | 1018.5 |
| 20260831033058 | 71 | 0 | 0.0 | 3.0 | 0.00 | 0.04 | 0.04 | 89 | 1018.6 |
| 20260831031540 | 71 | 352 | 1.0 | 4.0 | 0.00 | 0.04 | 0.04 | 89 | 1018.7 |
| 20260831030039 | 72 | 315 | 1.0 | 2.0 | 0.00 | 0.04 | 0.04 | 89 | 1018.9 |
| 20260831024538 | 71 | 261 | 0.0 | 2.0 | 0.01 | 0.04 | 0.04 | 89 | 1018.9 |
| 20260831023040 | 71 | 242 | 1.0 | 2.0 | 0.01 | 0.04 | 0.04 | 89 | 1018.9 |
| 20260831021540 | 72 | 292 | 0.0 | 2.0 | 0.03 | 0.04 | 0.04 | 88 | 1018.9 |
| 20260831020048 | 72 | 0 | 0.0 | 0.0 | 0.04 | 0.04 | 0.04 | 88 | 1019.1 |
| 20260831014538 | 72 | 0 | 0.0 | 4.0 | 0.03 | 0.03 | 0.03 | 86 | 1019.1 |
| 20260831013042 | 73 | 304 | 1.0 | 4.0 | 0.03 | 0.03 | 0.03 | 87 | 1018.8 |
| 20260831011544 | 73 | 0 | 0.0 | 0.0 | 0.01 | 0.01 | 0.01 | 87 | 1018.7 |
| 20260831010036 | 73 | 0 | 0.0 | 2.0 | 0.00 | 0.00 | 0.00 | 85 | 1018.6 |
| 20260831004539 | 74 | 314 | 1.0 | 2.0 | 0.00 | 0.00 | 0.00 | 85 | 1018.8 |
| 20260831003041 | 75 | 0 | 0.0 | 2.0 | 0.00 | 0.00 | 0.00 | 82 | 1018.6 |
| 20260831001540 | 76 | 298 | 0.0 | 2.0 | 0.00 | 0.00 | 0.00 | 79 | 1018.3 |
| 20260831000044 | 77 | 252 | 1.0 | 4.0 | 0.00 | 0.00 | 0.00 | 76 | 1018.0 |
| 20260830234540 | 77 | 273 | 0.0 | 3.0 | 0.00 | 0.00 | 0.00 | 75 | 1017.8 |
| 20260830233044 | 77 | 313 | 2.0 | 6.0 | 0.00 | 0.00 | 0.00 | 74 | 1017.6 |
| 20260830231542 | 77 | 0 | 1.0 | 7.0 | 0.00 | 0.00 | 0.00 | 74 | 1017.6 |
| 20260830230039 | 78 | 189 | 1.0 | 5.0 | 0.00 | 0.00 | 0.00 | 74 | 1017.7 |
| 20260830224539 | 78 | 203 | 1.0 | 7.0 | 0.00 | 0.00 | 0.00 | 74 | 1017.7 |
| 20260830223040 | 78 | 218 | 2.0 | 5.0 | 0.00 | 0.00 | 0.00 | 73 | 1017.7 |
| 20260830221542 | 78 | 248 | 1.0 | 9.0 | 0.00 | 0.00 | 0.00 | 72 | 1017.9 |
| 20260830220047 | 78 | 204 | 2.0 | 9.0 | 0.00 | 0.00 | 0.00 | 72 | 1017.9 |
| 20260830214545 | 78 | 194 | 3.0 | 8.0 | 0.00 | 0.00 | 0.00 | 72 | 1017.7 |
| 20260830213039 | 78 | 235 | 4.0 | 8.0 | 0.00 | 0.00 | 0.00 | 72 | 1017.7 |
| 20260830211539 | 79 | 179 | 3.0 | 9.0 | 0.00 | 0.00 | 0.00 | 71 | 1017.8 |
| 20260830210043 | 79 | 198 | 1.0 | 6.0 | 0.00 | 0.00 | 0.00 | 72 | 1017.9 |
| 20260830204535 | 79 | 220 | 3.0 | 8.0 | 0.00 | 0.00 | 0.00 | 71 | 1018.0 |
| 20260830203041 | 78 | 218 | 1.0 | 10.0 | 0.00 | 0.00 | 0.00 | 73 | 1018.2 |
| 20260830201541 | 77 | 218 | 4.0 | 9.0 | 0.00 | 0.00 | 0.00 | 73 | 1018.3 |
| 20260830200039 | 77 | 292 | 2.0 | 7.0 | 0.00 | 0.00 | 0.00 | 73 | 1018.5 |
| 20260830194542 | 76 | 216 | 3.0 | 9.0 | 0.00 | 0.00 | 0.00 | 73 | 1018.6 |
| 20260830193038 | 76 | 284 | 2.0 | 7.0 | 0.00 | 0.00 | 0.00 | 73 | 1018.7 |
| 20260830191543 | 76 | 192 | 4.0 | 10.0 | 0.00 | 0.00 | 0.00 | 73 | 1019.0 |
| 20260830190047 | 76 | 261 | 3.0 | 11.0 | 0.00 | 0.00 | 0.00 | 72 | 1019.3 |
| 20260830184539 | 76 | 224 | 2.0 | 5.0 | 0.00 | 0.00 | 0.00 | 71 | 1019.5 |
| 20260830183041 | 76 | 227 | 3.0 | 10.0 | 0.00 | 0.00 | 0.00 | 70 | 1019.7 |
| 20260830181536 | 77 | 237 | 3.0 | 7.0 | 0.00 | 0.00 | 0.00 | 68 | 1019.8 |
| 20260830180041 | 77 | 136 | 3.0 | 11.0 | 0.00 | 0.00 | 0.00 | 66 | 1019.9 |
| 20260830174539 | 77 | 234 | 4.0 | 11.0 | 0.00 | 0.00 | 0.00 | 65 | 1020.0 |
| 20260830173035 | 77 | 297 | 3.0 | 9.0 | 0.00 | 0.00 | 0.00 | 61 | 1020.1 |
| 20260830171540 | 78 | 218 | 5.0 | 13.0 | 0.00 | 0.00 | 0.00 | 61 | 1020.3 |
| 20260830170044 | 78 | 242 | 4.0 | 10.0 | 0.00 | 0.00 | 0.00 | 60 | 1020.2 |
| 20260830164539 | 77 | 208 | 6.0 | 12.0 | 0.00 | 0.00 | 0.00 | 60 | 1020.2 |
| 20260830163041 | 76 | 193 | 5.0 | 12.0 | 0.00 | 0.00 | 0.00 | 60 | 1020.6 |
| 20260830161541 | 77 | 195 | 3.0 | 8.0 | 0.00 | 0.00 | 0.00 | 58 | 1020.8 |
| 20260830160039 | 76 | 218 | 4.0 | 11.0 | 0.00 | 0.00 | 0.00 | 57 | 1020.9 |
| 20260830154540 | 77 | 250 | 4.0 | 10.0 | 0.00 | 0.00 | 0.00 | 52 | 1021.0 |
| 20260830153042 | 77 | 186 | 4.0 | 8.0 | 0.00 | 0.00 | 0.00 | 51 | 1021.1 |
| 20260830151545 | 76 | 221 | 5.0 | 9.0 | 0.00 | 0.00 | 0.00 | 50 | 1021.5 |
| 20260830150039 | 77 | 346 | 2.0 | 9.0 | 0.00 | 0.00 | 0.00 | 51 | 1021.6 |
| 20260830144548 | 76 | 223 | 4.0 | 10.0 | 0.00 | 0.00 | 0.00 | 51 | 1021.7 |
| 20260830143039 | 76 | 221 | 3.0 | 10.0 | 0.00 | 0.00 | 0.00 | 50 | 1021.5 |
| 20260830141539 | 75 | 216 | 5.0 | 10.0 | 0.00 | 0.00 | 0.00 | 53 | 1021.4 |
| 20260830140040 | 75 | 195 | 2.0 | 6.0 | 0.00 | 0.00 | 0.00 | 54 | 1021.8 |